Location: Saint Louis
(38.6272°N, 90.1978°W)
Time: 07:49:14
(UTC-05:00)

ISS - Pass Details

Date: 03 June 2013
Orbit: 401 x 404 km, 51.6° (Epoch: 24 July)

Event Time Altitude Azimuth Distance (km) Brightness Sun altitude
Exits shadow 23:02:30 13° 45° (NE) 1,318 -0.6 -23.1°
Drops below altitude 10° 23:02:54 10° 46° (NE) 1,478 -0.3 -23.1°
Sets 23:05:00 0° 49° (NE) 2,338 0.7 -23.3°
